Content
SEND FEEDBACK

Daily
Averages
Monthly
Summary
United States of America

DEDEDO, GUAM


Home > North America > United States > Guam
Elevation: 364 feet     Latitude: 13 33N     Longitude: 144 49E

WEATHER
 
SELECT A DAY
Number of Records: 209,230;   Date Range: 1/1/95 - 9/3/14
 
SHARE

PRINT THIS DATA

[ ← Previous Day ]
WEATHER ALMANAC - APRIL 27, 2013
[ Next Day → ]
[ °C ]   °F
Weather ElementAverageHighLow
Temperature85.9 °F91 °F (11:54 am)81 °F (2:54 am)
Dewpoint73.7 °F75 °F (1:54 am)71.1 °F (3:54 pm)
Humidity67.3 %82 % (2:54 am)54 % (3:54 pm)
Barometer29.88 in29.93 in (8:27 am)29.81 in (2:54 pm)
Wind Speed10.1 mph15 mph (1:54 pm)
Wind Gust20.7 mph (1:54 pm)
Weather ElementAverage
Visibility9.7 mi
Wind DirectionE (89 °)

Weather ElementTotal
Precipitation---
Cooling Degree Days21 (Base 65)
Growing Degree Days36 (Base 50)
Averaged from 30 records on April 27, 2013
WEATHER CONDITIONS BREAKOUT
WIND DIRECTION BREAKOUT
WEATHER BY HOUR - APRIL 27, 2013
[ °C ]   °F
Local TimeTemperatureDewpointHumidityBarometerVisibilityWind DirectionWind SpeedGust SpeedPrecipitationEventsConditions
1:54 AM82.0 °F75.0 °F79 %29.86 in10.0 miEast (100°)8.1 mphClear
2:54 AM81.0 °F75.0 °F82 %29.86 in10.0 miEast (80°)5.8 mphPartly Cloudy
3:54 AM82.0 °F75.0 °F79 %29.85 in10.0 miEast (100°)6.9 mphScattered Clouds
4:54 AM82.0 °F75.0 °F79 %29.86 in10.0 miEast (90°)6.9 mphPartly Cloudy
5:54 AM81.0 °F73.9 °F79 %29.87 in10.0 miEast (80°)5.8 mphClear
6:54 AM82.9 °F73.9 °F74 %29.88 in10.0 miEast (100°)5.8 mphClear
7:54 AM84.9 °F75.0 °F72 %29.90 in10.0 miEast (90°)11.5 mphScattered Clouds
8:27 AM84.2 °F73.4 °F70 %29.93 in1.8 miEast (80°)10.4 mphHaze
8:37 AM84.2 °F73.4 °F70 %29.92 in10.0 miEast (90°)11.5 mphScattered Clouds
8:54 AM86.0 °F73.9 °F67 %29.90 in10.0 miEast (90°)13.8 mphScattered Clouds
9:32 AM87.8 °F73.4 °F62 %29.92 in10.0 miEast (90°)11.5 mph18.4 mphMostly Cloudy
9:54 AM88.0 °F73.9 °F63 %29.90 in10.0 miEast (100°)12.7 mphMostly Cloudy
10:12 AM89.6 °F73.4 °F59 %29.91 in10.0 miEast (80°)11.5 mphPartly Cloudy
10:32 AM89.6 °F73.4 °F59 %29.91 in10.0 miEast (80°)13.8 mphMostly Cloudy
10:44 AM89.6 °F73.4 °F59 %29.91 in10.0 miEast (100°)11.5 mph19.6 mphScattered Clouds
10:54 AM89.1 °F73.0 °F59 %29.88 in10.0 miENE (70°)12.7 mph19.6 mphScattered Clouds
11:54 AM91.0 °F73.0 °F55 %29.87 in10.0 miEast (80°)12.7 mph18.4 mphPartly Cloudy
12:54 PM90.0 °F73.9 °F59 %29.85 in10.0 miESE (110°)11.5 mphMostly Cloudy
1:10 PM89.6 °F73.4 °F59 %29.87 in10.0 miEast (100°)10.4 mphMostly Cloudy
1:54 PM90.0 °F75.0 °F61 %29.83 in10.0 miEast (100°)15.0 mph20.7 mphScattered Clouds
2:54 PM90.0 °F73.0 °F57 %29.81 in10.0 miEast (90°)12.7 mphScattered Clouds
3:54 PM90.0 °F71.1 °F54 %29.81 in10.0 miEast (90°)11.5 mph18.4 mphScattered Clouds
4:54 PM87.1 °F73.0 °F63 %29.82 in10.0 miEast (100°)12.7 mphScattered Clouds
5:54 PM86.0 °F73.0 °F65 %29.83 in10.0 miENE (70°)13.8 mphPartly Cloudy
6:54 PM84.9 °F73.9 °F69 %29.85 in10.0 miENE (70°)8.1 mphPartly Cloudy
7:54 PM84.0 °F73.0 °F69 %29.86 in10.0 miEast (80°)6.9 mphPartly Cloudy
8:54 PM82.9 °F73.9 °F74 %29.88 in10.0 miEast (80°)6.9 mphPartly Cloudy
9:54 PM82.9 °F73.9 °F74 %29.90 in10.0 miEast (90°)6.9 mphScattered Clouds
10:54 PM82.9 °F73.9 °F74 %29.91 in10.0 miEast (100°)8.1 mphScattered Clouds
11:54 PM82.9 °F73.9 °F74 %29.90 in10.0 miEast (90°)6.9 mphPartly Cloudy
Hourly data recorded from PGUM, located miles away from Dededo, Guam







STORIES FROM OUR PARTNERS